Year,Month,Day,Hour,Minute,Value (Times are PST for temperature in C)
2007,09,23,00,00,8.80
2007,09,23,00,01,8.70
2007,09,23,00,02,8.70
2007,09,23,00,03,8.70
2007,09,23,00,04,8.70
2007,09,23,00,05,8.70
2007,09,23,00,06,8.70
2007,09,23,00,07,8.70
2007,09,23,00,08,8.70
2007,09,23,00,09,8.70
2007,09,23,00,10,8.70
2007,09,23,00,11,8.70
2007,09,23,00,12,8.70
2007,09,23,01,02,9.10
2007,09,23,01,03,9.10
2007,09,23,01,04,9.10
2007,09,23,01,05,9.10
2007,09,23,01,06,9.10
2007,09,23,01,07,9.10
2007,09,23,01,08,9.10
2007,09,23,01,09,9.10
2007,09,23,01,10,9.10
2007,09,23,01,11,9.10
2007,09,23,01,12,9.10
2007,09,23,01,13,9.10
2007,09,23,01,14,9.10
2007,09,23,01,15,9.10
2007,09,23,01,16,9.10
2007,09,23,01,17,9.10
2007,09,23,01,18,9.10
2007,09,23,01,19,9.10
2007,09,23,01,20,9.10
2007,09,23,01,21,9.10
2007,09,23,01,22,9.10
2007,09,23,01,23,9.10
2007,09,23,01,24,9.10
2007,09,23,01,25,9.10
2007,09,23,01,26,9.10
2007,09,23,01,27,9.10
2007,09,23,01,28,9.10
2007,09,23,01,29,9.10
2007,09,23,01,30,9.10
2007,09,23,01,31,9.10
2007,09,23,01,32,9.10
2007,09,23,01,33,9.10
2007,09,23,01,34,9.10
2007,09,23,01,35,9.10
2007,09,23,01,36,9.10
2007,09,23,01,37,9.10
2007,09,23,01,38,9.10
2007,09,23,01,39,9.10
2007,09,23,01,40,9.10
2007,09,23,01,41,9.10
2007,09,23,01,42,9.10
2007,09,23,01,43,9.10
2007,09,23,01,44,9.10
2007,09,23,01,45,9.10
2007,09,23,01,46,9.10
2007,09,23,01,47,9.10
2007,09,23,01,48,9.10
2007,09,23,01,49,9.00
2007,09,23,01,50,9.00
2007,09,23,01,51,9.00
2007,09,23,01,52,9.00
2007,09,23,01,53,9.00
2007,09,23,01,54,9.00
2007,09,23,01,55,9.00
2007,09,23,01,56,9.00
2007,09,23,01,57,9.00
2007,09,23,01,58,9.00
2007,09,23,01,59,9.00
2007,09,23,02,00,9.00
2007,09,23,02,01,9.00
2007,09,23,02,02,9.00
2007,09,23,02,03,9.00
2007,09,23,02,04,9.00
2007,09,23,02,05,8.90
2007,09,23,02,06,8.90
2007,09,23,02,07,8.90
2007,09,23,02,08,8.90
2007,09,23,02,09,8.90
2007,09,23,02,10,8.90
2007,09,23,02,11,8.90
2007,09,23,02,12,8.90
2007,09,23,02,13,8.90
2007,09,23,02,14,8.90
2007,09,23,02,15,8.90
2007,09,23,02,16,8.90
2007,09,23,02,17,8.90
2007,09,23,02,18,8.90
2007,09,23,02,19,8.90
2007,09,23,02,20,8.90
2007,09,23,02,21,8.80
2007,09,23,02,22,8.80
2007,09,23,02,23,8.80
2007,09,23,02,24,8.80
2007,09,23,02,25,8.80
2007,09,23,02,26,8.80
2007,09,23,02,27,8.80
2007,09,23,02,28,8.80
2007,09,23,02,29,8.80
2007,09,23,02,30,8.70
2007,09,23,02,31,8.70
2007,09,23,02,32,8.70
2007,09,23,02,33,8.70
2007,09,23,02,34,8.70
2007,09,23,02,35,8.70
2007,09,23,02,36,8.70
2007,09,23,02,37,8.70
2007,09,23,02,38,8.70
2007,09,23,02,39,8.70
2007,09,23,02,40,8.70
2007,09,23,02,41,8.70
2007,09,23,02,42,8.70
2007,09,23,02,43,8.70
2007,09,23,02,44,8.70
2007,09,23,02,45,8.70
2007,09,23,02,46,8.70
2007,09,23,02,47,8.70
2007,09,23,02,48,8.70
2007,09,23,02,49,8.70
2007,09,23,02,50,8.70
2007,09,23,02,51,8.70
2007,09,23,02,52,8.70
2007,09,23,02,53,8.70
2007,09,23,02,54,8.70
2007,09,23,02,55,8.70
2007,09,23,02,56,8.70
2007,09,23,02,57,8.70
2007,09,23,02,58,8.70
2007,09,23,02,59,8.70
2007,09,23,03,00,8.70
2007,09,23,03,01,8.70
2007,09,23,03,02,8.70
2007,09,23,03,03,8.70
2007,09,23,03,04,8.70
2007,09,23,03,05,8.70
2007,09,23,03,06,8.70
2007,09,23,03,07,8.70
2007,09,23,03,08,8.80
2007,09,23,03,09,8.80
2007,09,23,03,10,8.80
2007,09,23,03,11,8.90
2007,09,23,03,12,8.90
2007,09,23,03,13,8.90
2007,09,23,03,14,8.90
2007,09,23,03,15,9.00
2007,09,23,03,16,9.00
2007,09,23,03,17,9.00
2007,09,23,03,18,9.00
2007,09,23,03,19,9.00
2007,09,23,03,20,9.10
2007,09,23,03,21,9.10
2007,09,23,03,22,9.20
2007,09,23,03,23,9.20
2007,09,23,03,24,9.30
2007,09,23,03,25,9.30
2007,09,23,03,26,9.30
2007,09,23,03,27,9.40
2007,09,23,03,28,9.40
2007,09,23,03,29,9.50
2007,09,23,03,30,9.60
2007,09,23,03,31,9.60
2007,09,23,03,32,9.60
2007,09,23,03,33,9.70
2007,09,23,03,34,9.70
2007,09,23,03,35,9.70
2007,09,23,03,36,9.70
2007,09,23,03,37,9.70
2007,09,23,03,38,9.70
2007,09,23,03,39,9.70
2007,09,23,03,40,9.80
2007,09,23,03,41,9.80
2007,09,23,03,42,9.90
2007,09,23,03,43,9.90
2007,09,23,03,44,9.90
2007,09,23,03,45,9.90
2007,09,23,03,46,9.90
2007,09,23,03,47,10.10
2007,09,23,03,48,10.10
2007,09,23,03,49,10.10
2007,09,23,03,50,10.10
2007,09,23,03,51,10.10
2007,09,23,03,52,10.10
2007,09,23,03,53,10.20
2007,09,23,03,54,10.20
2007,09,23,03,55,10.20
2007,09,23,03,56,10.20
2007,09,23,03,57,10.30
2007,09,23,03,58,10.30
2007,09,23,03,59,10.40
2007,09,23,04,00,10.40
2007,09,23,04,01,10.40
2007,09,23,04,02,10.40
2007,09,23,04,03,10.40
2007,09,23,04,04,10.40
2007,09,23,04,05,10.40
2007,09,23,04,06,10.40
2007,09,23,04,07,10.40
2007,09,23,04,08,10.40
2007,09,23,04,09,10.50
2007,09,23,04,10,10.60
2007,09,23,04,11,10.60
2007,09,23,04,12,10.60
2007,09,23,04,13,10.60
2007,09,23,04,14,10.60
2007,09,23,04,15,10.60
2007,09,23,04,16,10.60
2007,09,23,04,17,10.60
2007,09,23,04,18,10.60
2007,09,23,04,19,10.60
2007,09,23,04,20,10.60
2007,09,23,04,21,10.60
2007,09,23,04,22,10.60
2007,09,23,04,23,10.60
2007,09,23,04,24,10.60
2007,09,23,04,25,10.60
2007,09,23,04,26,10.60
2007,09,23,04,27,10.60
2007,09,23,04,28,10.60
2007,09,23,04,29,10.60
2007,09,23,04,30,10.60
2007,09,23,04,31,10.60
2007,09,23,04,32,10.60
2007,09,23,04,33,10.60
2007,09,23,04,34,10.60
2007,09,23,04,35,10.60
2007,09,23,04,36,10.60
2007,09,23,04,37,10.60
2007,09,23,04,38,10.60
2007,09,23,04,39,10.60
2007,09,23,04,40,10.60
2007,09,23,04,41,10.60
2007,09,23,04,42,10.60
2007,09,23,04,43,10.60
2007,09,23,04,44,10.60
2007,09,23,04,45,10.60
2007,09,23,04,46,10.60
2007,09,23,04,47,10.60
2007,09,23,04,48,10.60
2007,09,23,04,49,10.60
2007,09,23,04,50,10.60
2007,09,23,04,51,10.50
2007,09,23,04,52,10.40
2007,09,23,04,53,10.40
2007,09,23,04,54,10.40
2007,09,23,04,55,10.40
2007,09,23,04,56,10.50
2007,09,23,04,57,10.60
2007,09,23,04,58,10.60
2007,09,23,04,59,10.60
2007,09,23,05,00,10.60
2007,09,23,05,01,10.60
2007,09,23,05,02,10.60
2007,09,23,05,03,10.60
2007,09,23,05,04,10.60
2007,09,23,05,05,10.60
2007,09,23,05,06,10.70
2007,09,23,05,07,10.70
2007,09,23,05,08,10.70
2007,09,23,05,09,10.70
2007,09,23,05,10,10.80
2007,09,23,05,11,10.80
2007,09,23,05,12,10.80
2007,09,23,05,13,10.80
2007,09,23,05,14,10.90
2007,09,23,05,15,10.90
2007,09,23,05,16,10.90
2007,09,23,05,17,10.90
2007,09,23,05,18,10.90
2007,09,23,05,19,10.90
2007,09,23,05,20,10.90
2007,09,23,05,21,10.90
2007,09,23,05,22,10.90
2007,09,23,05,23,10.90
2007,09,23,05,24,11.10
2007,09,23,05,25,11.10
2007,09,23,05,26,11.10
2007,09,23,05,27,11.10
2007,09,23,05,28,11.10
2007,09,23,05,29,11.10
2007,09,23,05,30,11.10
2007,09,23,05,31,11.10
2007,09,23,05,32,11.10
2007,09,23,05,33,11.10
2007,09,23,05,34,11.10
2007,09,23,05,35,11.10
2007,09,23,05,36,11.10
2007,09,23,05,37,11.10
2007,09,23,05,38,11.20
2007,09,23,05,39,11.20
2007,09,23,05,40,11.20
2007,09,23,05,41,11.20
2007,09,23,05,42,11.20
2007,09,23,05,43,11.20
2007,09,23,05,44,11.20
2007,09,23,05,45,11.30
2007,09,23,05,46,11.30
2007,09,23,05,47,11.30
2007,09,23,05,48,11.40
2007,09,23,05,49,11.40
2007,09,23,05,50,11.40
2007,09,23,05,51,11.40
2007,09,23,05,52,11.40
2007,09,23,05,53,11.40
2007,09,23,05,54,11.40
2007,09,23,05,55,11.40
2007,09,23,05,56,11.40
2007,09,23,05,57,11.40
2007,09,23,05,58,11.40
2007,09,23,05,59,11.40
2007,09,23,06,00,11.40
2007,09,23,06,01,11.50
2007,09,23,06,02,11.60
2007,09,23,06,03,11.60
2007,09,23,06,04,11.60
2007,09,23,06,05,11.60
2007,09,23,06,06,11.60
2007,09,23,06,07,11.60
2007,09,23,06,08,11.60
2007,09,23,06,09,11.60
2007,09,23,06,10,11.60
2007,09,23,06,11,11.60
2007,09,23,06,12,11.60
2007,09,23,06,13,11.60
2007,09,23,06,14,11.60
2007,09,23,06,15,11.60
2007,09,23,06,16,11.60
2007,09,23,06,17,11.60
2007,09,23,06,18,11.60
2007,09,23,06,19,11.60
2007,09,23,06,20,11.60
2007,09,23,06,21,11.60
2007,09,23,06,22,11.60
2007,09,23,06,23,11.50
2007,09,23,06,24,11.40
2007,09,23,06,25,11.40
2007,09,23,06,26,11.40
2007,09,23,06,27,11.40
2007,09,23,06,28,11.40
2007,09,23,06,29,11.40
2007,09,23,06,30,11.40
2007,09,23,06,31,11.40
2007,09,23,06,32,11.40
2007,09,23,06,33,11.40
2007,09,23,06,34,11.40
2007,09,23,06,35,11.40
2007,09,23,06,36,11.40
2007,09,23,06,37,11.30
2007,09,23,06,38,11.30
2007,09,23,06,39,11.30
2007,09,23,06,40,11.30
2007,09,23,06,41,11.30
2007,09,23,06,42,11.30
2007,09,23,06,43,11.30
2007,09,23,06,44,11.30
2007,09,23,06,45,11.20
2007,09,23,06,46,11.20
2007,09,23,06,47,11.20
2007,09,23,06,48,11.20
2007,09,23,06,49,11.20
2007,09,23,06,50,11.20
2007,09,23,06,51,11.20
2007,09,23,06,52,11.20
2007,09,23,06,53,11.20
2007,09,23,06,54,11.20
2007,09,23,06,55,11.20
2007,09,23,06,56,11.20
2007,09,23,06,57,11.30
2007,09,23,06,58,11.30
2007,09,23,06,59,11.30
2007,09,23,07,00,11.30
2007,09,23,07,01,11.30
2007,09,23,07,02,11.30
2007,09,23,07,03,11.30
2007,09,23,07,04,11.30
2007,09,23,07,05,11.30
2007,09,23,07,06,11.30
2007,09,23,07,07,11.30
2007,09,23,07,08,11.30
2007,09,23,07,09,11.30
2007,09,23,07,10,11.30
2007,09,23,07,11,11.30
2007,09,23,07,12,11.30
2007,09,23,07,13,11.30
2007,09,23,07,14,11.30
2007,09,23,07,15,11.30
2007,09,23,07,16,11.30
2007,09,23,07,17,11.30
2007,09,23,07,18,11.30
2007,09,23,07,19,11.30
2007,09,23,07,20,11.30
2007,09,23,07,21,11.30
2007,09,23,07,22,11.30
2007,09,23,07,23,11.30
2007,09,23,07,24,11.30
2007,09,23,07,25,11.30
2007,09,23,07,26,11.30
2007,09,23,07,27,11.30
2007,09,23,07,28,11.30
2007,09,23,07,29,11.30
2007,09,23,07,30,11.30
2007,09,23,07,31,11.30
2007,09,23,07,32,11.30
2007,09,23,07,33,11.30
2007,09,23,07,34,11.30
2007,09,23,07,35,11.30
2007,09,23,07,36,11.30
2007,09,23,07,37,11.30
2007,09,23,07,38,11.30
2007,09,23,07,39,11.30
2007,09,23,07,40,11.30
2007,09,23,07,41,11.30
2007,09,23,07,42,11.30
2007,09,23,07,43,11.30
2007,09,23,07,44,11.30
2007,09,23,07,45,11.30
2007,09,23,07,46,11.30
2007,09,23,07,47,11.30
2007,09,23,07,48,11.30
2007,09,23,07,49,11.30
2007,09,23,07,50,11.30
2007,09,23,07,51,11.30
2007,09,23,07,52,11.40
2007,09,23,07,53,11.40
2007,09,23,07,54,11.40
2007,09,23,07,55,11.40
2007,09,23,07,56,11.40
2007,09,23,07,57,11.40
2007,09,23,07,58,11.40
2007,09,23,07,59,11.40
2007,09,23,08,00,11.40
2007,09,23,08,01,11.40
2007,09,23,08,02,11.40
2007,09,23,08,03,11.40
2007,09,23,08,04,11.40
2007,09,23,08,05,11.40
2007,09,23,08,06,11.40
2007,09,23,08,07,11.40
2007,09,23,08,08,11.40
2007,09,23,08,09,11.40
2007,09,23,08,10,11.40
2007,09,23,08,11,11.40
2007,09,23,08,12,11.40
2007,09,23,08,13,11.40
2007,09,23,08,14,11.40
2007,09,23,08,15,11.40
2007,09,23,08,16,11.40
2007,09,23,08,17,11.40
2007,09,23,08,18,11.40
2007,09,23,08,19,11.40
2007,09,23,08,20,11.40
2007,09,23,08,21,11.40
2007,09,23,08,22,11.40
2007,09,23,08,23,11.40
2007,09,23,08,24,11.60
2007,09,23,08,25,11.60
2007,09,23,08,26,11.60
2007,09,23,08,27,11.60
2007,09,23,08,28,11.60
2007,09,23,08,29,11.60
2007,09,23,08,30,11.60
2007,09,23,08,31,11.60
2007,09,23,08,32,11.60
2007,09,23,08,33,11.60
2007,09,23,08,34,11.60
2007,09,23,08,35,11.60
2007,09,23,08,36,11.60
2007,09,23,08,37,11.60
2007,09,23,08,38,11.60
2007,09,23,08,39,11.60
2007,09,23,08,40,11.60
2007,09,23,08,41,11.60
2007,09,23,08,42,11.60
2007,09,23,08,43,11.60
2007,09,23,08,44,11.60
2007,09,23,08,45,11.60
2007,09,23,08,46,11.60
2007,09,23,08,47,11.60
2007,09,23,08,48,11.60
2007,09,23,08,49,11.60
2007,09,23,08,50,11.60
2007,09,23,08,51,11.70
2007,09,23,08,52,11.70
2007,09,23,08,53,11.70
2007,09,23,08,54,11.70
2007,09,23,08,55,11.70
2007,09,23,08,56,11.70
2007,09,23,08,57,11.70
2007,09,23,08,58,11.70
2007,09,23,08,59,11.70
2007,09,23,09,00,11.70
2007,09,23,09,01,11.70
2007,09,23,09,02,11.80
2007,09,23,09,03,11.80
2007,09,23,09,04,11.80
2007,09,23,09,05,11.80
2007,09,23,09,06,11.80
2007,09,23,09,07,11.80
2007,09,23,09,08,11.80
2007,09,23,09,09,11.80
2007,09,23,09,10,11.80
2007,09,23,09,11,11.80
2007,09,23,09,12,11.80
2007,09,23,09,13,11.80
2007,09,23,09,14,11.80
2007,09,23,09,15,11.80
2007,09,23,09,16,11.80
2007,09,23,09,17,11.90
2007,09,23,09,18,11.90
2007,09,23,09,19,11.90
2007,09,23,09,20,11.90
2007,09,23,09,21,11.90
2007,09,23,09,22,11.90
2007,09,23,09,23,12.00
2007,09,23,09,24,12.00
2007,09,23,09,25,12.00
2007,09,23,09,26,12.00
2007,09,23,09,27,12.00
2007,09,23,09,28,12.10
2007,09,23,09,29,12.10
2007,09,23,09,30,12.10
2007,09,23,09,31,12.10
2007,09,23,09,32,12.10
2007,09,23,09,33,12.10
2007,09,23,09,34,12.10
2007,09,23,09,35,12.10
2007,09,23,09,36,12.10
2007,09,23,09,37,12.10
2007,09,23,09,38,12.10
2007,09,23,09,39,12.10
2007,09,23,09,40,12.10
2007,09,23,09,41,12.10
2007,09,23,09,42,12.10
2007,09,23,09,43,12.10
2007,09,23,09,44,12.10
2007,09,23,09,45,12.10
2007,09,23,09,46,12.10
2007,09,23,09,47,12.10
2007,09,23,09,48,12.10
2007,09,23,09,49,12.10
2007,09,23,09,50,12.10
2007,09,23,09,51,12.10
2007,09,23,09,52,12.10
2007,09,23,09,53,12.10
2007,09,23,09,54,12.10
2007,09,23,09,55,12.10
2007,09,23,09,56,12.10
2007,09,23,09,57,12.10
2007,09,23,09,58,12.10
2007,09,23,09,59,12.10
2007,09,23,10,00,12.20
2007,09,23,10,01,12.20
2007,09,23,10,02,12.20
2007,09,23,10,03,12.20
2007,09,23,10,04,12.20
2007,09,23,10,05,12.20
2007,09,23,10,06,12.20
2007,09,23,10,07,12.20
2007,09,23,10,08,12.20
2007,09,23,10,09,12.20
2007,09,23,10,10,12.20
2007,09,23,10,11,12.20
2007,09,23,10,12,12.20
2007,09,23,10,13,12.30
2007,09,23,10,14,12.30
2007,09,23,10,15,12.30
2007,09,23,10,16,12.30
2007,09,23,10,17,12.30
2007,09,23,10,18,12.30
2007,09,23,10,19,12.30
2007,09,23,10,20,12.30
2007,09,23,10,21,12.40
2007,09,23,10,22,12.40
2007,09,23,10,23,12.40
2007,09,23,10,24,12.40
2007,09,23,10,25,12.40
2007,09,23,10,26,12.50
2007,09,23,10,27,12.50
2007,09,23,10,28,12.50
2007,09,23,10,29,12.50
2007,09,23,10,30,12.60
2007,09,23,10,31,12.60
2007,09,23,10,32,12.60
2007,09,23,10,33,12.70
2007,09,23,10,34,12.80
2007,09,23,10,35,12.80
2007,09,23,10,36,12.90
2007,09,23,10,37,13.00
2007,09,23,10,38,13.10
2007,09,23,10,39,13.10
2007,09,23,10,40,13.10
2007,09,23,10,41,13.20
2007,09,23,10,42,13.20
2007,09,23,10,43,13.30
2007,09,23,10,44,13.30
2007,09,23,10,45,13.40
2007,09,23,10,46,13.40
2007,09,23,10,47,13.40
2007,09,23,10,48,13.40
2007,09,23,10,49,13.40
2007,09,23,10,50,13.50
2007,09,23,10,51,13.50
2007,09,23,10,52,13.60
2007,09,23,10,53,13.60
2007,09,23,10,54,13.60
2007,09,23,10,55,13.60
2007,09,23,10,56,13.60
2007,09,23,10,57,13.60
2007,09,23,10,58,13.60
2007,09,23,10,59,13.60
2007,09,23,11,00,13.70
2007,09,23,11,01,13.80
2007,09,23,11,02,13.90
2007,09,23,11,03,14.00
2007,09,23,11,04,14.20
2007,09,23,11,05,14.40
2007,09,23,11,06,14.60
2007,09,23,11,07,14.70
2007,09,23,11,08,14.80
2007,09,23,11,09,14.80
2007,09,23,11,10,14.80
2007,09,23,11,11,14.90
2007,09,23,11,12,14.90
2007,09,23,11,13,15.00
2007,09,23,11,14,15.00
2007,09,23,11,15,14.90
2007,09,23,11,16,14.90
2007,09,23,11,17,14.90
2007,09,23,11,18,14.80
2007,09,23,11,19,14.70
2007,09,23,11,20,14.60
2007,09,23,11,21,14.60
2007,09,23,11,22,14.60
2007,09,23,11,23,14.60
2007,09,23,11,24,14.70
2007,09,23,11,25,14.70
2007,09,23,11,26,14.70
2007,09,23,11,27,14.80
2007,09,23,11,28,14.80
2007,09,23,11,29,14.80
2007,09,23,11,30,14.80
2007,09,23,11,31,14.80
2007,09,23,11,32,14.80
2007,09,23,11,33,14.80
2007,09,23,11,34,14.70
2007,09,23,11,35,14.60
2007,09,23,11,36,14.50
2007,09,23,11,37,14.50
2007,09,23,11,38,14.40
2007,09,23,11,39,14.50
2007,09,23,11,40,14.50
2007,09,23,11,41,14.50
2007,09,23,11,42,14.60
2007,09,23,11,43,14.60
2007,09,23,11,44,14.60
2007,09,23,11,45,14.60
2007,09,23,11,46,14.70
2007,09,23,11,47,14.80
2007,09,23,11,48,14.80
2007,09,23,11,49,14.80
2007,09,23,11,50,14.80
2007,09,23,11,51,14.80
2007,09,23,11,52,14.90
2007,09,23,11,53,15.00
2007,09,23,11,54,15.00
2007,09,23,11,55,15.10
2007,09,23,11,56,15.10
2007,09,23,11,57,15.10
2007,09,23,11,58,15.10
2007,09,23,11,59,15.10
2007,09,23,12,00,15.30
2007,09,23,12,01,15.30
2007,09,23,12,02,15.30
2007,09,23,12,03,15.40
2007,09,23,12,04,15.50
2007,09,23,12,05,15.40
2007,09,23,12,06,15.40
2007,09,23,12,07,15.30
2007,09,23,12,08,15.30
2007,09,23,12,09,15.20
2007,09,23,12,10,15.20
2007,09,23,12,11,15.20
2007,09,23,12,12,15.20
2007,09,23,12,13,15.20
2007,09,23,12,14,15.20
2007,09,23,12,15,15.20
2007,09,23,12,16,15.30
2007,09,23,12,17,15.30
2007,09,23,12,18,15.30
2007,09,23,12,19,15.30
2007,09,23,12,20,15.30
2007,09,23,12,21,15.30
2007,09,23,12,22,15.30
2007,09,23,12,23,15.20
2007,09,23,12,24,15.30
2007,09,23,12,25,15.20
2007,09,23,12,26,15.20
2007,09,23,12,27,15.20
2007,09,23,12,28,15.20
2007,09,23,12,29,15.30
2007,09,23,12,30,15.40
2007,09,23,12,31,15.40
2007,09,23,12,32,15.40
2007,09,23,12,33,15.40
2007,09,23,12,34,15.40
2007,09,23,12,35,15.40
2007,09,23,12,36,15.40
2007,09,23,12,37,15.30
2007,09,23,12,38,15.30
2007,09,23,12,39,15.20
2007,09,23,12,40,15.20
2007,09,23,12,41,15.10
2007,09,23,12,42,15.10
2007,09,23,12,43,14.90
2007,09,23,12,44,14.80
2007,09,23,12,45,14.70
2007,09,23,12,46,14.60
2007,09,23,12,47,14.50
2007,09,23,12,48,14.50
2007,09,23,12,49,14.50
2007,09,23,12,50,14.50
2007,09,23,12,51,14.40
2007,09,23,12,52,14.40
2007,09,23,12,53,14.30
2007,09,23,12,54,14.30
2007,09,23,12,55,14.20
2007,09,23,12,56,14.20
2007,09,23,12,57,14.20
2007,09,23,12,58,14.20
2007,09,23,12,59,14.20
2007,09,23,13,00,14.20
2007,09,23,13,01,14.20
2007,09,23,13,02,14.20
2007,09,23,13,03,14.20
2007,09,23,13,04,14.30
2007,09,23,13,05,14.30
2007,09,23,13,06,14.30
2007,09,23,13,07,14.30
2007,09,23,13,08,14.30
2007,09,23,13,09,14.40
2007,09,23,13,10,14.40
2007,09,23,13,11,14.40
2007,09,23,13,12,14.50
2007,09,23,13,13,14.60
2007,09,23,13,14,14.60
2007,09,23,13,15,14.70
2007,09,23,13,16,14.70
2007,09,23,13,17,14.70
2007,09,23,13,18,14.70
2007,09,23,13,19,14.80
2007,09,23,13,20,14.90
2007,09,23,13,21,15.00
2007,09,23,13,22,15.10
2007,09,23,13,23,15.20
2007,09,23,13,24,15.30
2007,09,23,13,25,15.50
2007,09,23,13,26,15.50
2007,09,23,13,27,15.50
2007,09,23,13,28,15.50
2007,09,23,13,29,15.40
2007,09,23,13,30,15.30
2007,09,23,13,31,15.30
2007,09,23,13,32,15.30
2007,09,23,13,33,15.40
2007,09,23,13,34,15.50
2007,09,23,13,35,15.60
2007,09,23,13,36,15.60
2007,09,23,13,37,15.60
2007,09,23,13,38,15.60
2007,09,23,13,39,15.60
2007,09,23,13,40,15.60
2007,09,23,13,41,15.60
2007,09,23,13,42,15.60
2007,09,23,13,43,15.60
2007,09,23,13,44,15.50
2007,09,23,13,45,15.40
2007,09,23,13,46,15.30
2007,09,23,13,47,15.30
2007,09,23,13,48,15.30
2007,09,23,13,49,15.30
2007,09,23,13,50,15.30
2007,09,23,13,51,15.30
2007,09,23,13,52,15.20
2007,09,23,13,53,15.00
2007,09,23,13,54,14.80
2007,09,23,13,55,14.80
2007,09,23,13,56,14.70
2007,09,23,13,57,14.70
2007,09,23,13,58,14.70
2007,09,23,13,59,14.70
2007,09,23,14,00,14.80
2007,09,23,14,01,14.90
2007,09,23,14,02,14.90
2007,09,23,14,03,14.90
2007,09,23,14,04,15.00
2007,09,23,14,05,15.10
2007,09,23,14,06,15.20
2007,09,23,14,07,15.30
2007,09,23,14,08,15.50
2007,09,23,14,09,15.60
2007,09,23,14,10,15.70
2007,09,23,14,11,15.80
2007,09,23,14,12,15.80
2007,09,23,14,13,15.90
2007,09,23,14,14,15.80
2007,09,23,14,15,15.80
2007,09,23,14,16,15.80
2007,09,23,14,17,15.70
2007,09,23,14,18,15.70
2007,09,23,14,19,15.60
2007,09,23,14,20,15.70
2007,09,23,14,21,15.70
2007,09,23,14,22,15.80
2007,09,23,14,23,15.80
2007,09,23,14,24,15.80
2007,09,23,14,25,15.80
2007,09,23,14,26,15.80
2007,09,23,14,27,15.90
2007,09,23,14,28,16.00
2007,09,23,14,29,16.10
2007,09,23,14,30,16.10
2007,09,23,14,31,16.10
2007,09,23,14,32,16.10
2007,09,23,14,33,15.90
2007,09,23,14,34,15.70
2007,09,23,14,35,15.60
2007,09,23,14,36,15.50
2007,09,23,14,37,15.50
2007,09,23,14,38,15.40
2007,09,23,14,39,15.40
2007,09,23,14,40,15.50
2007,09,23,14,41,15.60
2007,09,23,14,42,15.70
2007,09,23,14,43,15.80
2007,09,23,14,44,15.90
2007,09,23,14,45,15.90
2007,09,23,14,46,15.90
2007,09,23,14,47,15.80
2007,09,23,14,48,15.80
2007,09,23,14,49,15.70
2007,09,23,14,50,15.60
2007,09,23,14,51,15.60
2007,09,23,14,52,15.60
2007,09,23,14,53,15.60
2007,09,23,14,54,15.60
2007,09,23,14,55,15.70
2007,09,23,14,56,15.60
2007,09,23,14,57,15.70
2007,09,23,14,58,15.70
2007,09,23,14,59,15.70
2007,09,23,15,00,15.70
2007,09,23,15,01,15.60
2007,09,23,15,02,15.60
2007,09,23,15,03,15.50
2007,09,23,15,04,15.50
2007,09,23,15,05,15.40
2007,09,23,15,06,15.40
2007,09,23,15,07,15.40
2007,09,23,15,08,15.40
2007,09,23,15,09,15.30
2007,09,23,15,10,15.30
2007,09,23,15,11,15.20
2007,09,23,15,12,15.10
2007,09,23,15,13,15.10
2007,09,23,15,14,15.10
2007,09,23,15,15,15.10
2007,09,23,15,16,15.20
2007,09,23,15,17,15.20
2007,09,23,15,18,15.30
2007,09,23,15,19,15.40
2007,09,23,15,20,15.60
2007,09,23,15,21,15.80
2007,09,23,15,22,15.80
2007,09,23,15,23,15.90
2007,09,23,15,24,16.10
2007,09,23,15,25,16.20
2007,09,23,15,26,16.40
2007,09,23,15,27,16.40
2007,09,23,15,28,16.60
2007,09,23,15,29,16.50
2007,09,23,15,30,16.40
2007,09,23,15,31,16.40
2007,09,23,15,32,16.30
2007,09,23,15,33,16.10
2007,09,23,15,34,15.90
2007,09,23,15,35,15.80
2007,09,23,15,36,15.80
2007,09,23,15,37,15.80
2007,09,23,15,38,15.70
2007,09,23,15,39,15.70
2007,09,23,15,40,15.80
2007,09,23,15,41,15.60
2007,09,23,15,42,15.40
2007,09,23,15,43,15.30
2007,09,23,15,44,15.30
2007,09,23,15,45,15.30
2007,09,23,15,46,15.30
2007,09,23,15,47,15.30
2007,09,23,15,48,15.30
2007,09,23,15,49,15.30
2007,09,23,15,50,15.30
2007,09,23,15,51,15.30
2007,09,23,15,52,15.30
2007,09,23,15,53,15.40
2007,09,23,15,54,15.50
2007,09,23,15,55,15.60
2007,09,23,15,56,15.70
2007,09,23,15,57,15.70
2007,09,23,15,58,15.80
2007,09,23,15,59,15.90
2007,09,23,16,00,15.90
2007,09,23,16,01,15.90
2007,09,23,16,02,15.90
2007,09,23,16,03,15.80
2007,09,23,16,04,15.70
2007,09,23,16,05,15.70
2007,09,23,16,06,15.60
2007,09,23,16,07,15.60
2007,09,23,16,08,15.60
2007,09,23,16,09,15.60
2007,09,23,16,10,15.60
2007,09,23,16,11,15.60
2007,09,23,16,12,15.60
2007,09,23,16,13,15.50
2007,09,23,16,14,15.50
2007,09,23,16,15,15.40
2007,09,23,16,16,15.30
2007,09,23,16,17,15.30
2007,09,23,16,18,15.20
2007,09,23,16,19,15.10
2007,09,23,16,20,15.00
2007,09,23,16,21,14.90
2007,09,23,16,22,14.90
2007,09,23,16,23,15.00
2007,09,23,16,24,15.00
2007,09,23,16,25,15.10
2007,09,23,16,26,15.00
2007,09,23,16,27,15.00
2007,09,23,16,28,15.10
2007,09,23,16,29,15.20
2007,09,23,16,30,15.30
2007,09,23,16,31,15.40
2007,09,23,16,32,15.50
2007,09,23,16,33,15.60
2007,09,23,16,34,15.80
2007,09,23,16,35,15.80
2007,09,23,16,36,15.90
2007,09,23,16,37,15.90
2007,09,23,16,38,15.90
2007,09,23,16,39,15.90
2007,09,23,16,40,15.80
2007,09,23,16,41,15.80
2007,09,23,16,42,15.80
2007,09,23,16,43,15.80
2007,09,23,16,44,15.90
2007,09,23,16,45,15.90
2007,09,23,16,46,16.00
2007,09,23,16,47,16.00
2007,09,23,16,48,15.90
2007,09,23,16,49,15.90
2007,09,23,16,50,15.70
2007,09,23,16,51,15.60
2007,09,23,16,52,15.50
2007,09,23,16,53,15.40
2007,09,23,16,54,15.30
2007,09,23,16,55,15.20
2007,09,23,16,56,15.10
2007,09,23,16,57,15.00
2007,09,23,16,58,14.90
2007,09,23,16,59,14.80
2007,09,23,17,00,14.90
2007,09,23,17,01,14.90
2007,09,23,17,02,15.00
2007,09,23,17,03,15.00
2007,09,23,17,04,15.00
2007,09,23,17,05,14.90
2007,09,23,17,06,14.90
2007,09,23,17,07,14.90
2007,09,23,17,08,14.90
2007,09,23,17,09,14.90
2007,09,23,17,10,15.00
2007,09,23,17,11,15.00
2007,09,23,17,12,15.00
2007,09,23,17,13,15.00
2007,09,23,17,14,15.00
2007,09,23,17,15,15.00
2007,09,23,17,16,15.00
2007,09,23,17,17,15.00
2007,09,23,17,18,15.00
2007,09,23,17,19,15.00
2007,09,23,17,20,15.10
2007,09,23,17,21,15.10
2007,09,23,17,22,15.20
2007,09,23,17,23,15.30
2007,09,23,17,24,15.30
2007,09,23,17,25,15.30
2007,09,23,17,26,15.40
2007,09,23,17,27,15.40
2007,09,23,17,28,15.40
2007,09,23,17,29,15.40
2007,09,23,17,30,15.30
2007,09,23,17,31,15.30
2007,09,23,17,32,15.30
2007,09,23,17,33,15.30
2007,09,23,17,34,15.20
2007,09,23,17,35,15.10
2007,09,23,17,36,15.10
2007,09,23,17,37,15.00
2007,09,23,17,38,14.90
2007,09,23,17,39,14.80
2007,09,23,17,40,14.70
2007,09,23,17,41,14.60
2007,09,23,17,42,14.60
2007,09,23,17,43,14.60
2007,09,23,17,44,14.70
2007,09,23,17,45,14.70
2007,09,23,17,46,14.80
2007,09,23,17,47,14.80
2007,09,23,17,48,14.80
2007,09,23,17,49,14.80
2007,09,23,17,50,14.80
2007,09,23,17,51,14.80
2007,09,23,17,52,14.80
2007,09,23,17,53,14.70
2007,09,23,17,54,14.70
2007,09,23,17,55,14.70
2007,09,23,17,56,14.60
2007,09,23,17,57,14.60
2007,09,23,17,58,14.60
2007,09,23,17,59,14.50
2007,09,23,18,00,14.50
2007,09,23,18,01,14.50
2007,09,23,18,02,14.40
2007,09,23,18,03,14.40
2007,09,23,18,04,14.30
2007,09,23,18,05,14.20
2007,09,23,18,06,14.20
2007,09,23,18,07,14.20
2007,09,23,18,08,14.20
2007,09,23,18,09,14.20
2007,09,23,18,10,14.10
2007,09,23,18,11,14.10
2007,09,23,18,12,14.00
2007,09,23,18,13,14.00
2007,09,23,18,14,14.00
2007,09,23,18,15,14.00
2007,09,23,18,16,13.90